^^
Station Historical Data
Daily Summary for November 6, 2021 Units:  English    Metric   Both
Daily Weekly Monthly Yearly
  High: Low: Average:
Temperature: 42.6 °F 38.6 °F 40.6 °F
Dew Point: 36.9 °F 32.7 °F 34.9 °F
Humidity: 83% 77% 80%
Wind Speed: 3mph 2mph 2.9mph
Wind Gust: 5mph - -
Wind- - ENE
Pressure: 30.28 in 30.22 in -
Precipitation: 0.00 in    
 
 
Tabular Data for November 6, 2021
Time Temperature Dew Point Pressure Wind Wind Speed Wind Gust Humidity Rainfall Rate (Hourly) solar
00:00 42.6 °F 36.9 °F 30.27 in NNE 3 mph 3 mph 80% 0.00 in 0 W/m2
00:05 42.5 °F 36.8 °F 30.27 in North 3 mph 3 mph 80% 0.00 in 0 W/m2
00:10 42.5 °F 36.8 °F 30.27 in NNE 3 mph 3 mph 80% 0.00 in 0 W/m2
00:15 42.5 °F 36.8 °F 30.27 in North 3 mph 3 mph 80% 0.00 in 0 W/m2
00:20 42.4 °F 36.7 °F 30.27 in NE 3 mph 3 mph 80% 0.00 in 0 W/m2
00:25 42.3 °F 36.6 °F 30.27 in North 3 mph 3 mph 80% 0.00 in 0 W/m2
00:30 42.2 °F 36.5 °F 30.27 in NNE 3 mph 4 mph 80% 0.00 in 0 W/m2
00:35 42.1 °F 36.7 °F 30.27 in North 3 mph 4 mph 81% 0.00 in 0 W/m2
00:40 42 °F 36.3 °F 30.27 in North 3 mph 3 mph 80% 0.00 in 0 W/m2
00:45 41.9 °F 36.2 °F 30.27 in NNE 3 mph 3 mph 80% 0.00 in 0 W/m2
00:50 41.8 °F 36.4 °F 30.27 in NNE 3 mph 3 mph 81% 0.00 in 0 W/m2
00:55 41.8 °F 36.4 °F 30.28 in NNE 3 mph 3 mph 81% 0.00 in 0 W/m2
01:00 41.8 °F 36.4 °F 30.28 in NNE 3 mph 3 mph 81% 0.00 in 0 W/m2
01:05 41.7 °F 36.3 °F 30.28 in NE 3 mph 3 mph 81% 0.00 in 0 W/m2
01:10 41.6 °F 35.9 °F 30.28 in ENE 3 mph 3 mph 80% 0.00 in 0 W/m2
01:15 41.6 °F 36.2 °F 30.28 in East 3 mph 3 mph 81% 0.00 in 0 W/m2
01:20 41.5 °F 36.1 °F 30.28 in NW 3 mph 3 mph 81% 0.00 in 0 W/m2
01:25 41.5 °F 36.1 °F 30.28 in ENE 3 mph 3 mph 81% 0.00 in 0 W/m2
01:30 41.4 °F 36 °F 30.28 in NNE 3 mph 3 mph 81% 0.00 in 0 W/m2
01:35 41.4 °F 36.3 °F 30.28 in NE 3 mph 3 mph 82% 0.00 in 0 W/m2
01:40 41.4 °F 36.3 °F 30.28 in NNE 3 mph 4 mph 82% 0.00 in 0 W/m2
01:45 41.3 °F 35.9 °F 30.27 in North 3 mph 4 mph 81% 0.00 in 0 W/m2
01:50 41.3 °F 35.9 °F 30.27 in NNE 3 mph 3 mph 81% 0.00 in 0 W/m2
01:55 41.3 °F 35.9 °F 30.27 in NE 3 mph 3 mph 81% 0.00 in 0 W/m2
02:00 41.2 °F 36.1 °F 30.27 in NNE 3 mph 4 mph 82% 0.00 in 0 W/m2
02:05 41.2 °F 35.8 °F 30.27 in NW 3 mph 4 mph 81% 0.00 in 0 W/m2
02:10 41.2 °F 35.8 °F 30.27 in NNE 3 mph 4 mph 81% 0.00 in 0 W/m2
02:15 41.3 °F 36.2 °F 30.27 in NE 3 mph 4 mph 82% 0.00 in 0 W/m2
02:20 41.3 °F 36.2 °F 30.27 in North 3 mph 3 mph 82% 0.00 in 0 W/m2
02:25 41.3 °F 36.5 °F 30.27 in NNW 2 mph 4 mph 83% 0.00 in 0 W/m2
02:30 41.2 °F 35.8 °F 30.27 in North 2 mph 2 mph 81% 0.00 in 0 W/m2
02:35 41.2 °F 36.1 °F 30.27 in NNE 3 mph 3 mph 82% 0.00 in 0 W/m2
02:40 41.2 °F 35.8 °F 30.27 in NNE 3 mph 3 mph 81% 0.00 in 0 W/m2
02:45 41.1 °F 35.7 °F 30.26 in NNE 3 mph 3 mph 81% 0.00 in 0 W/m2
02:50 41.1 °F 35.7 °F 30.26 in NNE 2 mph 3 mph 81% 0.00 in 0 W/m2
02:55 41.1 °F 35.7 °F 30.26 in North 2 mph 3 mph 81% 0.00 in 0 W/m2
03:05 41.1 °F 35.7 °F 30.26 in North 3 mph 3 mph 81% 0.00 in 0 W/m2
03:10 41.1 °F 35.7 °F 30.26 in NNW 3 mph 3 mph 81% 0.00 in 0 W/m2
03:15 41.1 °F 35.7 °F 30.26 in NNE 3 mph 3 mph 81% 0.00 in 0 W/m2
03:20 41.1 °F 35.4 °F 30.26 in North 3 mph 3 mph 80% 0.00 in 0 W/m2
03:25 41.1 °F 35.4 °F 30.26 in NNE 3 mph 3 mph 80% 0.00 in 0 W/m2
03:30 41 °F 35.3 °F 30.26 in NNE 3 mph 4 mph 80% 0.00 in 0 W/m2
03:35 41.1 °F 35.7 °F 30.26 in NNE 3 mph 3 mph 81% 0.00 in 0 W/m2
03:40 41.1 °F 35.7 °F 30.26 in ENE 3 mph 3 mph 81% 0.00 in 0 W/m2
03:45 41.1 °F 35.4 °F 30.26 in North 2 mph 4 mph 80% 0.00 in 0 W/m2
03:50 41.1 °F 35.4 °F 30.26 in NNE 3 mph 4 mph 80% 0.00 in 0 W/m2
03:55 41 °F 35.6 °F 30.26 in North 3 mph 3 mph 81% 0.00 in 0 W/m2
04:00 40.9 °F 35.2 °F 30.26 in East 3 mph 3 mph 80% 0.00 in 0 W/m2
04:05 40.9 °F 35.2 °F 30.26 in North 3 mph 3 mph 80% 0.00 in 0 W/m2
04:10 40.8 °F 35.1 °F 30.26 in NNE 3 mph 3 mph 80% 0.00 in 0 W/m2
04:15 40.8 °F 35.1 °F 30.26 in North 3 mph 3 mph 80% 0.00 in 0 W/m2
04:20 40.8 °F 35.1 °F 30.25 in NNE 3 mph 3 mph 80% 0.00 in 0 W/m2
04:25 40.7 °F 35 °F 30.25 in NNE 3 mph 3 mph 80% 0.00 in 0 W/m2
04:30 40.7 °F 35 °F 30.25 in North 3 mph 3 mph 80% 0.00 in 0 W/m2
04:35 40.7 °F 35 °F 30.25 in NNE 3 mph 3 mph 80% 0.00 in 0 W/m2
04:40 40.7 °F 35 °F 30.25 in NNE 3 mph 3 mph 80% 0.00 in 0 W/m2
04:45 40.8 °F 34.8 °F 30.25 in North 3 mph 3 mph 79% 0.00 in 0 W/m2
04:50 40.8 °F 34.8 °F 30.25 in North 3 mph 3 mph 79% 0.00 in 0 W/m2
04:55 40.7 °F 34.7 °F 30.25 in North 3 mph 4 mph 79% 0.00 in 0 W/m2
05:00 40.7 °F 35 °F 30.25 in NNE 3 mph 3 mph 80% 0.00 in 0 W/m2
05:05 40.6 °F 34.9 °F 30.25 in NNE 3 mph 3 mph 80% 0.00 in 0 W/m2
05:10 40.5 °F 34.8 °F 30.25 in NNE 3 mph 3 mph 80% 0.00 in 0 W/m2
05:15 40.5 °F 34.5 °F 30.25 in NNE 3 mph 3 mph 79% 0.00 in 0 W/m2
05:20 40.5 °F 34.8 °F 30.25 in NNE 3 mph 3 mph 80% 0.00 in 0 W/m2
05:25 40.5 °F 34.8 °F 30.24 in North 3 mph 3 mph 80% 0.00 in 0 W/m2
05:30 40.5 °F 34.5 °F 30.24 in NNE 3 mph 4 mph 79% 0.00 in 0 W/m2
05:35 40.6 °F 34.9 °F 30.24 in NNE 3 mph 4 mph 80% 0.00 in 0 W/m2
05:40 40.5 °F 34.8 °F 30.24 in NNE 3 mph 3 mph 80% 0.00 in 0 W/m2
05:45 40.5 °F 34.5 °F 30.24 in North 3 mph 4 mph 79% 0.00 in 0 W/m2
05:55 40.4 °F 34.4 °F 30.24 in NNE 3 mph 3 mph 79% 0.00 in 0 W/m2
06:00 40.4 °F 34.1 °F 30.25 in North 3 mph 4 mph 78% 0.00 in 0 W/m2
06:05 40.4 °F 34.1 °F 30.24 in North 3 mph 4 mph 78% 0.00 in 0 W/m2
06:10 40.4 °F 34.4 °F 30.24 in NNE 3 mph 3 mph 79% 0.00 in 0 W/m2
06:15 40.2 °F 33.6 °F 30.24 in NNE 3 mph 3 mph 77% 0.00 in 0 W/m2
06:20 40.2 °F 33.9 °F 30.24 in NNE 3 mph 3 mph 78% 0.00 in 0 W/m2
06:25 40.2 °F 33.9 °F 30.24 in NNW 3 mph 3 mph 78% 0.00 in 0 W/m2
06:30 40.1 °F 34.1 °F 30.24 in North 3 mph 4 mph 79% 0.00 in 0 W/m2
06:35 40 °F 34 °F 30.25 in NNE 3 mph 4 mph 79% 0.00 in 0 W/m2
06:40 40 °F 33.7 °F 30.24 in NNE 3 mph 3 mph 78% 0.00 in 0 W/m2
06:45 40 °F 34 °F 30.25 in NE 3 mph 3 mph 79% 0.00 in 0 W/m2
06:50 39.8 °F 33.5 °F 30.24 in NNE 3 mph 3 mph 78% 0.00 in 0 W/m2
06:55 39.7 °F 33.7 °F 30.24 in NNE 3 mph 3 mph 79% 0.00 in 0 W/m2
07:00 39.6 °F 33 °F 30.24 in NNE 3 mph 3 mph 77% 0.00 in 0 W/m2
07:05 39.5 °F 33.5 °F 30.24 in NE 3 mph 3 mph 79% 0.00 in 0 W/m2
07:10 39.5 °F 33.2 °F 30.24 in NNE 3 mph 3 mph 78% 0.00 in 0 W/m2
07:15 39.4 °F 33.4 °F 30.24 in WNW 3 mph 3 mph 79% 0.00 in 0 W/m2
07:20 39.4 °F 33.4 °F 30.24 in NNE 3 mph 3 mph 79% 0.00 in 0 W/m2
07:25 39.4 °F 33.4 °F 30.24 in NE 3 mph 4 mph 79% 0.00 in 0 W/m2
07:30 39.3 °F 33.3 °F 30.24 in NNE 3 mph 3 mph 79% 0.00 in 0 W/m2
07:35 39.2 °F 33.2 °F 30.24 in NNE 3 mph 3 mph 79% 0.00 in 0 W/m2
07:40 39 °F 33 °F 30.24 in ENE 2 mph 2 mph 79% 0.00 in 0 W/m2
07:45 38.8 °F 32.8 °F 30.24 in NE 3 mph 3 mph 79% 0.00 in 0 W/m2
07:50 38.7 °F 32.7 °F 30.23 in NE 2 mph 3 mph 79% 0.00 in 0 W/m2
07:55 38.6 °F 33 °F 30.23 in NNE 2 mph 3 mph 80% 0.00 in 0 W/m2
08:00 38.7 °F 33.4 °F 30.24 in North 2 mph 3 mph 81% 0.00 in 0 W/m2
08:05 38.8 °F 33.2 °F 30.23 in NNE 2 mph 3 mph 80% 0.00 in 0 W/m2
08:10 38.8 °F 33.5 °F 30.23 in North 2 mph 3 mph 81% 0.00 in 7 W/m2
08:15 39 °F 33.7 °F 30.23 in NNE 3 mph 3 mph 81% 0.00 in 9 W/m2
08:20 39.1 °F 33.1 °F 30.23 in NNE 3 mph 3 mph 79% 0.00 in 11 W/m2
08:25 39.2 °F 32.9 °F 30.23 in NNE 3 mph 3 mph 78% 0.00 in 14 W/m2
08:30 39.3 °F 33.6 °F 30.23 in NE 3 mph 3 mph 80% 0.00 in 18 W/m2
08:35 39.4 °F 33.4 °F 30.23 in NNE 3 mph 3 mph 79% 0.00 in 23 W/m2
08:40 39.4 °F 33.1 °F 30.23 in North 3 mph 3 mph 78% 0.00 in 26 W/m2
08:45 39.5 °F 33.2 °F 30.23 in NE 3 mph 5 mph 78% 0.00 in 26 W/m2
08:50 39.6 °F 33.3 °F 30.23 in NNE 3 mph 3 mph 78% 0.00 in 25 W/m2
08:55 39.6 °F 33.3 °F 30.22 in NNE 3 mph 4 mph 78% 0.00 in 32 W/m2
09:00 39.7 °F 33.4 °F 30.22 in North 3 mph 4 mph 78% 0.00 in 30 W/m2
09:05 39.7 °F 33.4 °F 30.22 in NE 3 mph 4 mph 78% 0.00 in 30 W/m2
09:10 39.8 °F 33.5 °F 30.22 in NNE 3 mph 3 mph 78% 0.00 in 35 W/m2
09:15 39.9 °F 33.3 °F 30.22 in NNE 3 mph 3 mph 77% 0.00 in 40 W/m2
09:20 40.1 °F 33.5 °F 30.22 in North 3 mph 4 mph 77% 0.00 in 49 W/m2
Sand Point, Michigan, USA
Compliments of Weather Underground - 2 mb